KJ4YLO Weather Reports


Display with metric or nautical units.
time (UTC)temp
F
wind
direction
speed
MPH
gust
MPH
rain 1hr
in
rain 24hr
in
rain mn
in
humidity
%
barometer
mb
20260505164730 75 214 2.0 2.0 0.00 0.00 0.00 37 1018.0
20260505164228 75 191 5.0 6.0 0.00 0.00 0.00 37 1018.0
20260505163726 74 251 1.0 2.0 0.00 0.00 0.00 37 1018.0
20260505163224 74 225 3.0 3.0 0.00 0.00 0.00 39 1017.6
20260505162721 75 167 7.0 9.0 0.00 0.00 0.00 39 1017.6
20260505162218 73 291 2.0 2.0 0.00 0.00 0.00 42 1018.0
20260505161715 73 181 3.0 3.0 0.00 0.00 0.00 42 1018.0
20260505161213 73 178 2.0 2.0 0.00 0.00 0.00 43 1018.0
20260505160710 72 235 3.0 3.0 0.00 0.00 0.00 45 1018.0
20260505160207 72 177 4.0 5.0 0.00 0.00 0.00 45 1018.0
20260505153146 70 354 1.0 1.0 0.00 0.00 0.00 46 1018.3
20260505152643 70 355 0.0 1.0 0.00 0.00 0.00 49 1018.3
20260505152139 69 179 2.0 2.0 0.00 0.00 0.00 49 1018.3
20260505151634 69 309 1.0 1.0 0.00 0.00 0.00 49 1018.3
20260505151132 68 325 1.0 1.0 0.00 0.00 0.00 51 1018.6
20260505150628 67 348 0.0 0.0 0.00 0.00 0.00 52 1018.3
20260505150125 67 162 2.0 2.0 0.00 0.00 0.00 52 1018.6
20260505140554 62 205 0.0 0.0 0.00 0.00 0.00 63 1018.3
20260505125007 55 346 0.0 0.0 0.00 0.00 0.00 81 1018.0
20260505124504 54 54 0.0 0.0 0.00 0.00 0.00 84 1018.0
20260505124000 54 327 0.0 0.0 0.00 0.00 0.00 86 1017.6
20260505123456 53 35 0.0 0.0 0.00 0.00 0.00 88 1017.6
20260505122953 53 354 0.0 0.0 0.00 0.00 0.00 94 1018.0
20260505122450 52 23 0.0 0.0 0.00 0.00 0.00 95 1017.6
20260505121947 51 354 0.0 0.0 0.00 0.00 0.00 95 1017.6
20260505121443 50 353 0.0 0.0 0.00 0.00 0.00 95 1017.6
20260505120939 49 353 0.0 0.0 0.00 0.00 0.00 95 1017.6
20260505120436 49 353 0.0 0.0 0.00 0.00 0.00 95 1017.3
20260505115935 48 354 0.0 0.0 0.00 0.00 0.00 95 1017.3
20260505115432 48 352 0.0 0.0 0.00 0.00 0.00 95 1017.3
20260505114930 47 352 0.0 0.0 0.00 0.00 0.00 95 1017.3
20260505114426 47 352 0.0 0.0 0.00 0.00 0.00 95 1017.3
20260505113922 47 351 0.0 0.0 0.00 0.00 0.00 96 1017.3
20260505113419 46 351 0.0 0.0 0.00 0.00 0.00 95 1017.6
20260505112915 46 352 0.0 0.0 0.00 0.00 0.00 95 1017.3
20260505112413 46 349 0.0 0.0 0.00 0.00 0.00 95 1017.3
20260505111909 46 349 0.0 0.0 0.00 0.00 0.00 95 1017.3
20260505111403 45 350 0.0 0.0 0.00 0.00 0.00 95 1017.3
20260505110900 45 349 0.0 0.0 0.00 0.00 0.00 95 1017.3
20260505110357 45 349 0.0 0.0 0.00 0.00 0.00 95 1017.3
20260505101827 46 332 0.0 0.0 0.00 0.00 0.00 94 1016.9
20260505101323 46 332 0.0 0.0 0.00 0.00 0.00 94 1016.6
20260505100818 46 332 0.0 0.0 0.00 0.00 0.00 94 1016.6
20260505100316 46 332 0.0 0.0 0.00 0.00 0.00 94 1016.9
20260505095811 46 332 0.0 0.0 0.00 0.00 0.00 93 1016.6
20260505095309 46 332 0.0 0.0 0.00 0.00 0.00 93 1016.6
20260505094804 46 332 0.0 0.0 0.00 0.00 0.00 93 1016.6
20260505094302 46 331 0.0 0.0 0.00 0.00 0.00 93 1016.6
20260505093757 46 331 0.0 0.0 0.00 0.00 0.00 93 1016.6
20260505093255 46 331 0.0 0.0 0.00 0.00 0.00 93 1016.6
20260505092751 46 331 0.0 0.0 0.00 0.00 0.00 93 1016.6
20260505092250 46 331 0.0 0.0 0.00 0.00 0.00 93 1016.6
20260505091747 46 331 0.0 0.0 0.00 0.00 0.00 93 1016.6
20260505091245 46 331 0.0 0.0 0.00 0.00 0.00 93 1016.6
20260505090743 47 331 0.0 0.0 0.00 0.00 0.00 93 1016.6
20260505090241 46 331 0.0 0.0 0.00 0.00 0.00 93 1016.6
20260505085738 47 332 0.0 0.0 0.00 0.00 0.00 93 1016.6
20260505085236 47 349 0.0 0.0 0.00 0.00 0.00 92 1016.3
20260505084733 47 349 0.0 0.0 0.00 0.00 0.00 92 1016.3
20260505084232 46 349 0.0 0.0 0.00 0.00 0.00 92 1016.3
20260505083728 47 349 0.0 0.0 0.00 0.00 0.00 92 1016.3
20260505083225 47 349 0.0 0.0 0.00 0.00 0.00 91 1016.3
20260505082721 47 349 0.0 0.0 0.00 0.00 0.00 91 1016.3
20260505082219 47 349 0.0 0.0 0.00 0.00 0.00 91 1016.3
20260505081714 47 349 0.0 0.0 0.00 0.00 0.00 91 1016.3
20260505081212 47 349 0.0 0.0 0.00 0.00 0.00 91 1016.3
20260505080709 47 349 0.0 0.0 0.00 0.00 0.00 90 1016.3
20260505080204 47 349 0.0 0.0 0.00 0.00 0.00 90 1016.3
20260505075700 47 346 0.0 0.0 0.00 0.00 0.00 90 1016.3
20260505075157 47 347 0.0 0.0 0.00 0.00 0.00 90 1016.3
20260505074655 48 347 0.0 0.0 0.00 0.00 0.00 90 1016.3
20260505074151 48 346 0.0 0.0 0.00 0.00 0.00 89 1016.3
20260505073649 48 346 0.0 0.0 0.00 0.00 0.00 89 1016.3
20260505073147 48 346 0.0 0.0 0.00 0.00 0.00 89 1016.3
20260505072643 48 346 0.0 0.0 0.00 0.00 0.00 88 1016.3
20260505072139 48 346 0.0 0.0 0.00 0.00 0.00 88 1015.9
20260505071635 48 346 0.0 0.0 0.00 0.00 0.00 88 1016.3
20260505071133 48 346 0.0 0.0 0.00 0.00 0.00 87 1016.3
20260505070630 48 346 0.0 0.0 0.00 0.00 0.00 87 1016.3
20260505070126 49 346 0.0 0.0 0.00 0.00 0.00 87 1016.3
20260505065622 49 346 0.0 0.0 0.00 0.00 0.00 86 1016.3
20260505065119 49 346 0.0 0.0 0.00 0.00 0.00 86 1016.3
20260505064616 49 346 0.0 0.0 0.00 0.00 0.00 86 1016.3
20260505064114 49 346 0.0 0.0 0.00 0.00 0.00 86 1016.3
20260505063611 49 346 0.0 0.0 0.00 0.00 0.00 86 1016.3
20260505063107 49 347 0.0 0.0 0.00 0.00 0.00 85 1016.3
20260505062604 49 346 0.0 0.0 0.00 0.00 0.00 85 1016.6
20260505062101 49 346 0.0 0.0 0.00 0.00 0.00 85 1016.9
20260505061558 50 346 0.0 0.0 0.00 0.00 0.00 85 1016.6
20260505061056 50 346 0.0 0.0 0.00 0.00 0.00 85 1016.6
20260505060553 50 346 0.0 0.0 0.00 0.00 0.00 84 1016.9
20260505060050 50 345 0.0 0.0 0.00 0.00 0.00 84 1016.6
20260505055545 50 346 0.0 0.0 0.00 0.00 0.00 84 1016.3
20260505055042 50 346 0.0 0.0 0.00 0.00 0.00 83 1016.6
20260505054539 50 346 0.0 0.0 0.00 0.00 0.00 83 1016.6
20260505054038 50 345 0.0 0.0 0.00 0.00 0.00 83 1016.6
20260505053534 50 344 0.0 0.0 0.00 0.00 0.00 83 1016.3
20260505053031 51 344 0.0 0.0 0.00 0.00 0.00 82 1016.9
20260505052528 51 344 0.0 0.0 0.00 0.00 0.00 82 1016.6
20260505052026 51 344 0.0 0.0 0.00 0.00 0.00 82 1016.6
20260505051522 51 344 0.0 0.0 0.00 0.00 0.00 82 1016.6
20260505051020 51 344 0.0 0.0 0.00 0.00 0.00 81 1016.6
20260505050518 51 343 0.0 0.0 0.00 0.00 0.00 81 1016.9
20260505041446 52 344 0.0 0.0 0.00 0.00 0.00 79 1016.6
20260505040943 53 328 0.0 0.0 0.00 0.00 0.00 79 1016.9
20260505040441 53 328 0.0 0.0 0.00 0.00 0.00 79 1016.9
20260505035937 53 328 0.0 0.0 0.00 0.00 0.00 78 1016.9
20260505035433 53 328 0.0 0.0 0.00 0.00 0.00 77 1016.6
20260505034931 53 328 0.0 0.0 0.00 0.00 0.00 77 1016.6
20260505034427 53 328 0.0 0.0 0.00 0.00 0.00 77 1016.9
20260505033924 53 328 0.0 0.0 0.00 0.00 0.00 76 1016.9
20260505033421 53 328 0.0 0.0 0.00 0.00 0.00 76 1016.9
20260505032919 53 328 0.0 0.0 0.00 0.00 0.00 75 1016.9
20260505032416 54 327 0.0 0.0 0.00 0.00 0.00 76 1016.9
20260505031912 54 327 0.0 0.0 0.00 0.00 0.00 76 1016.9
20260505031409 54 328 0.0 0.0 0.00 0.00 0.00 75 1016.9
20260505030906 54 328 0.0 0.0 0.00 0.00 0.00 75 1016.6
20260505030402 54 328 0.0 0.0 0.00 0.00 0.00 74 1016.9
20260505025857 55 328 0.0 0.0 0.00 0.00 0.00 74 1016.9
20260505025355 55 328 0.0 0.0 0.00 0.00 0.00 74 1016.9
20260505024854 55 328 0.0 0.0 0.00 0.00 0.00 74 1016.9
20260505024351 55 328 0.0 0.0 0.00 0.00 0.00 74 1016.9
20260505023847 56 328 0.0 0.0 0.00 0.00 0.00 73 1016.9
20260505023339 56 328 0.0 0.0 0.00 0.00 0.00 73 1016.9
20260505022836 56 328 0.0 0.0 0.00 0.00 0.00 72 1016.6
20260505022333 56 328 0.0 0.0 0.00 0.00 0.00 73 1016.9
20260505021831 56 328 0.0 0.0 0.00 0.00 0.00 72 1016.9
20260505021327 57 328 0.0 0.0 0.00 0.00 0.00 72 1016.6
20260505020823 57 328 0.0 0.0 0.00 0.00 0.00 71 1016.6
20260505020319 57 328 0.0 0.0 0.00 0.00 0.00 71 1016.6
20260505015816 58 327 0.0 0.0 0.00 0.00 0.00 71 1016.3
20260505015313 58 328 0.0 0.0 0.00 0.00 0.00 70 1016.6
20260505014810 58 328 0.0 0.0 0.00 0.00 0.00 69 1016.3
20260505014307 58 327 0.0 0.0 0.00 0.00 0.00 68 1016.3
20260505013803 58 328 0.0 0.0 0.00 0.00 0.00 68 1016.3
20260505013301 59 327 0.0 0.0 0.00 0.00 0.00 67 1016.3
20260505012759 59 328 0.0 0.0 0.00 0.00 0.00 66 1016.3
20260505012256 59 327 0.0 0.0 0.00 0.00 0.00 66 1016.3
20260505011752 59 327 0.0 0.0 0.00 0.00 0.00 65 1015.9
20260505011248 60 327 0.0 0.0 0.00 0.00 0.00 65 1016.3
20260505010744 60 327 0.0 0.0 0.00 0.00 0.00 65 1016.3
20260505010241 61 327 0.0 0.0 0.00 0.00 0.00 65 1015.9
20260505005737 61 327 0.0 0.0 0.00 0.00 0.00 65 1015.5
20260505005234 62 327 0.0 0.0 0.00 0.00 0.00 64 1015.5
20260505004731 62 327 0.0 0.0 0.00 0.00 0.00 63 1015.9
20260505004227 63 327 0.0 0.0 0.00 0.00 0.00 62 1015.9
20260505003725 63 327 0.0 0.0 0.00 0.00 0.00 61 1015.9
20260505003223 63 327 0.0 0.0 0.00 0.00 0.00 61 1015.9
20260505002718 64 327 0.0 0.0 0.00 0.00 0.00 60 1015.5
20260505002216 64 327 0.0 0.0 0.00 0.00 0.00 60 1015.9
20260505001714 65 327 0.0 0.0 0.00 0.00 0.00 59 1015.5
20260505001211 66 327 0.0 0.0 0.00 0.00 0.00 58 1015.9
20260505000708 66 327 0.0 0.0 0.00 0.00 0.00 57 1015.5
20260505000206 67 327 0.0 0.0 0.00 0.00 0.00 56 1015.9
20260504235702 68 327 0.0 0.0 0.00 0.00 0.00 55 1015.5
20260504235158 69 327 0.0 0.0 0.00 0.00 0.00 53 1015.5
20260504234656 69 327 0.0 0.0 0.00 0.00 0.00 49 1015.5
20260504234153 69 327 0.0 0.0 0.00 0.00 0.00 48 1015.9
20260504233648 70 327 0.0 0.0 0.00 0.00 0.00 48 1015.5
20260504233144 70 327 0.0 0.0 0.00 0.00 0.00 47 1015.5
20260504232642 71 327 0.0 0.0 0.00 0.00 0.00 45 1015.5
20260504232139 71 327 0.0 0.0 0.00 0.00 0.00 44 1015.5
20260504231636 71 327 0.0 0.0 0.00 0.00 0.00 43 1015.5
20260504231132 72 328 0.0 0.0 0.00 0.00 0.00 42 1015.5
20260504230628 72 328 0.0 0.0 0.00 0.00 0.00 41 1015.5
20260504230127 73 329 0.0 0.0 0.00 0.00 0.00 39 1015.5
20260504225625 73 329 0.0 0.0 0.00 0.00 0.00 38 1015.1
20260504225121 73 331 0.0 0.0 0.00 0.00 0.00 40 1015.5
20260504224618 73 296 1.0 2.0 0.00 0.00 0.00 36 1015.1
20260504224115 73 298 1.0 2.0 0.00 0.00 0.00 39 1015.1
20260504223612 73 315 0.0 0.0 0.00 0.00 0.00 36 1015.5
20260504223107 74 317 0.0 0.0 0.00 0.00 0.00 40 1015.5
20260504222605 74 330 0.0 0.0 0.00 0.00 0.00 38 1015.9
20260504222102 75 294 1.0 1.0 0.00 0.00 0.00 37 1015.5
20260504221559 75 306 0.0 0.0 0.00 0.00 0.00 39 1015.5
20260504221055 75 35 1.0 1.0 0.00 0.00 0.00 39 1015.5
20260504220552 75 247 0.0 1.0 0.00 0.00 0.00 37 1015.1
20260504220049 76 84 1.0 1.0 0.00 0.00 0.00 33 1015.5
20260504215546 77 330 0.0 1.0 0.00 0.00 0.00 35 1015.5
20260504215043 77 329 0.0 0.0 0.00 0.00 0.00 35 1015.5
20260504214539 76 36 2.0 2.0 0.00 0.00 0.00 35 1015.5
20260504214036 77 317 1.0 1.0 0.00 0.00 0.00 35 1015.5
20260504213532 76 32 0.0 1.0 0.00 0.00 0.00 35 1015.5
20260504213029 76 353 1.0 1.0 0.00 0.00 0.00 36 1015.5
20260504212525 77 291 1.0 2.0 0.00 0.00 0.00 36 1015.5
20260504212023 76 319 1.0 1.0 0.00 0.00 0.00 35 1015.5
20260504211520 77 317 0.0 1.0 0.00 0.00 0.00 34 1015.5
20260504211017 77 326 0.0 1.0 0.00 0.00 0.00 36 1015.5
20260504210514 76 305 1.0 2.0 0.00 0.00 0.00 36 1015.5
20260504210010 76 212 2.0 2.0 0.00 0.00 0.00 34 1015.5
20260504205508 77 276 2.0 2.0 0.00 0.00 0.00 37 1015.5
20260504205006 76 196 3.0 3.0 0.00 0.00 0.00 35 1015.5
20260504204504 76 209 4.0 5.0 0.00 0.00 0.00 34 1015.5
20260504204003 77 169 2.0 2.0 0.00 0.00 0.00 34 1015.5
20260504203500 76 333 2.0 2.0 0.00 0.00 0.00 33 1015.5
20260504202956 76 194 3.0 3.0 0.00 0.00 0.00 34 1015.5
20260504202452 76 329 2.0 2.0 0.00 0.00 0.00 34 1015.9
20260504201950 76 183 2.0 2.0 0.00 0.00 0.00 35 1015.9
20260504201447 76 257 2.0 2.0 0.00 0.00 0.00 34 1015.5
20260504200944 76 207 3.0 3.0 0.00 0.00 0.00 32 1015.9
20260504200441 76 203 3.0 5.0 0.00 0.00 0.00 33 1015.9
20260504195937 76 182 3.0 3.0 0.00 0.00 0.00 33 1015.5
20260504195433 77 190 3.0 3.0 0.00 0.00 0.00 30 1015.9
20260504194930 79 155 3.0 3.0 0.00 0.00 0.00 31 1015.9
20260504194426 78 186 3.0 3.0 0.00 0.00 0.00 30 1015.9
20260504193922 77 320 0.0 0.0 0.00 0.00 0.00 31 1015.9
20260504193419 77 190 3.0 3.0 0.00 0.00 0.00 32 1015.9
20260504192918 77 24 0.0 1.0 0.00 0.00 0.00 33 1016.3
20260504192415 77 350 1.0 1.0 0.00 0.00 0.00 30 1016.3
20260504191914 77 320 1.0 1.0 0.00 0.00 0.00 33 1016.3
20260504191411 76 191 4.0 5.0 0.00 0.00 0.00 30 1016.3
20260504190906 77 323 0.0 0.0 0.00 0.00 0.00 30 1016.3
20260504190403 76 328 0.0 0.0 0.00 0.00 0.00 30 1016.6
20260504185859 78 327 2.0 2.0 0.00 0.00 0.00 28 1016.6
20260504185357 77 265 2.0 2.0 0.00 0.00 0.00 33 1016.3
20260504184853 77 190 3.0 3.0 0.00 0.00 0.00 30 1016.6
20260504184348 77 323 0.0 1.0 0.00 0.00 0.00 30 1016.9
20260504183844 76 322 1.0 1.0 0.00 0.00 0.00 30 1016.9
20260504183342 76 280 0.0 1.0 0.00 0.00 0.00 29 1016.9
20260504182839 76 269 1.0 1.0 0.00 0.00 0.00 30 1016.9
20260504182337 77 11 2.0 2.0 0.00 0.00 0.00 30 1016.9
20260504181833 76 334 0.0 1.0 0.00 0.00 0.00 29 1016.9
20260504181331 76 346 0.0 1.0 0.00 0.00 0.00 29 1016.9
20260504180830 75 282 3.0 3.0 0.00 0.00 0.00 29 1017.3
20260504180328 76 192 6.0 7.0 0.00 0.00 0.00 26 1017.3
20260504175826 76 319 2.0 2.0 0.00 0.00 0.00 30 1017.3
20260504175322 74 300 1.0 1.0 0.00 0.00 0.00 29 1017.3
20260504174821 74 326 0.0 0.0 0.00 0.00 0.00 28 1017.6
20260504174318 75 11 2.0 2.0 0.00 0.00 0.00 29 1017.6
20260504173814 75 278 0.0 1.0 0.00 0.00 0.00 28 1017.6
20260504173311 74 216 3.0 3.0 0.00 0.00 0.00 30 1017.6
20260504172808 75 339 1.0 1.0 0.00 0.00 0.00 29 1017.6
20260504172305 74 323 1.0 1.0 0.00 0.00 0.00 27 1017.3
20260504171800 74 340 0.0 1.0 0.00 0.00 0.00 30 1018.0
20260504171258 73 15 1.0 1.0 0.00 0.00 0.00 29 1018.0
20260504170755 74 341 2.0 2.0 0.00 0.00 0.00 31 1017.6
20260504170252 72 17 1.0 2.0 0.00 0.00 0.00 30 1017.6